www.pogodaiklimat.ru

Погода и климат >> Архив погоды >> Россия >> Магаданская область >> Коркодон


ПОГОДА в Коркодоне

  • Прогноз погоды в Коркодоне
  • Монитор погоды в Коркодоне

АРХИВ ПОГОДЫ в Коркодоне

Время (UTC), дата Ветер
(напр.,м/с)
 
Видим.   Явления Облачность Т
(С)
Тd
(С)
f
(%)
Тe
(С)
Тes
(С)
Комфортность P
(гПа)
Po
(гПа)
Тmin
(С)
Tmax
(С)
R
(мм)
R24
(мм)
S
(см)
18 11.08 СЗ 1 50 км {гроза} 9/5 1000 м
[Cb cap Ci fib]
+9.9 +9.4 97 +9 +9 1009.4 997.5
21 11.08 З 1 50 км 9/5 1000 м
[Cb cap Ci fib]
+10.9 +10.3 96 +10 +12 1009.4 997.5 +8.4
00 12.08 З 2 50 км 9/4 1000 м
[Sc Ci fib]
+16.4 +12.7 79 +17 +20 1008.3 996.7
03 12.08 З 2 50 км 9/3 1000 м
[Cu med, cong Ci fib]
+22.4 +11.8 51 +25 +30 комфорт 1006.7 995.3
06 12.08 В 2 50 км 9/3 1000 м
[Cu med, cong Ci fib]
+23.0 +8.3 39 +24 +26 комфорт 1005.9 994.6
09 12.08 СЗ 1 50 км 9/0
[Ci fib]
+17.3 +13.5 78 +18 +19 1006.2 994.7 +23.7
12 12.08 З 2 50 км 3/0
[Ci fib]
+13.6 +12.6 94 +13 +13 1007.3 995.6
15 12.08 З 2 50 км 9/3 1000 м
[Sc Ci fib]
+10.5 +9.9 96 +9 +9 1008.2 996.3
18 12.08 З 1 10 км туман местами 9/0
[Ci fib]
+10.1 +9.6 97 +9 +9 1008.8 996.9
21 12.08 З 2 10 км туман местами 9/0
[Ci fib]
+10.9 +10.4 97 +9 +12 1008.7 996.8 +9.6
00 13.08 СЗ 1 50 км 3/3 1000 м
[Cu med, cong]
+17.1 +12.4 74 +18 +24 1006.8 995.2
03 13.08 СЗ 3-15
{15}
50 км 4/0
[Ci fib]
+22.4 -3.1 18 +21 +27 комфорт 1005.2 993.8
06 13.08 С 3
{15}
50 км 4/3 1000 м
[Sc Ci fib]
+19.8 +3.5 34 +20 +22 1005.9 994.4
09 13.08 СВ 2
{10}
50 км 3/0
[Ci fib]
+13.8 +4.1 52 +13 +14 1009.0 997.2 +22.4
12 13.08 С 1 50 км 4/0
[Ci fib]
+5.6 +4.6 93 +4 +4 1011.1 998.9
15 13.08 штиль 0 50 км ясно +2.6 +2.2 97 +1 +1 1012.3 1000.1
18 13.08 СЗ 1 50 км ясно +2.2 +1.9 98 0 0 1013.7 1001.4
21 13.08 ЮЗ 1 50 км 4/4 1000 м
[Sc]
+7.8 +5.8 87 +7 +9 1014.6 1002.5 +1.5
00 14.08 З 2 50 км 10/10 1000 м
[Cb cap]
+11.9 +6.6 70 +11 +11 1015.3 1003.4
03 14.08 З 3 50 км 10/10 1000 м
[Cb cap]
+13.7 +7.0 64 +13 +13 1015.5 1003.6
06 14.08 З 2 50 км 9/4 1000 м
[Sc Ci fib]
+15.3 +8.1 62 +15 +17 1015.9 1004.1
09 14.08 З 1 50 км 9/9 1000 м
[Sc]
+13.0 +8.3 73 +13 +13 1017.1 1005.2 +15.4
12 14.08 С 1 50 км 8/8 1000 м
[Sc]
+7.8 +7.2 96 +7 +7 1018.5 1006.3
15 14.08 штиль 0 50 км 6/6 1000 м
[Sc]
+5.5 +4.9 96 +4 +4 1019.6 1007.4
18 14.08 штиль 0 50 км 6/6 1000 м
[Sc]
+1.1 +0.8 98 -0 -0 1021.0 1008.6
21 14.08 В 1 50 км 9/9 1000 м
[Sc]
+8.7 +5.9 83 +8 +8 1021.6 1009.4 +1.1
00 15.08 В 3 50 км 6/4 1000 м
[Sc Ci fib]
+12.8 +6.2 64 +12 +15 1021.3 1009.3
03 15.08 В 4 50 км 9/4 1000 м
[Sc Ci fib]
+14.7 +7.3 61 +14 +16 1021.1 1009.2
06 15.08 В 3 50 км 9/0
[Ci fib]
+15.3 +7.6 60 +15 +17 1021.0 1009.2
09 15.08 В 1 50 км 9/0
[Ci fib]
+12.0 +8.7 80 +12 +12 1021.9 1009.9 +15.4
12 15.08 штиль 0 50 км ясно +3.9 +3.5 97 +3 +3 1023.0 1010.6
15 15.08 В 1 10 км туман местами ясно +0.2 -0.1 98 -2 -2 1023.9 1011.3
18 15.08 В 1 10 км туман местами ясно +3.7 +3.4 98 +2 +2 1025.0 1012.6
21 15.08 штиль 0 10 км туман местами ясно +4.3 +4.0 98 +3 +6 1025.5 1013.1 -0.2
00 16.08 В 2 50 км ясно +14.7 +2.5 44 +15 +22 1024.3 1012.4
03 16.08 ЮВ 2 50 км ясно +18.8 +3.8 37 +20 +27 1023.1 1011.4
06 16.08 В 2 50 км ясно +20.3 +3.1 32 +21 +25 комфорт 1022.1 1010.4
09 16.08 С 1 50 км ясно +13.2 +9.3 77 +13 +14 1022.5 1010.6 +20.4
12 16.08 В 1 50 км ясно +5.1 +4.5 96 +4 +4 1023.7 1011.3
15 16.08 штиль 0 20 км туман местами ясно 0.0 -0.3 98 -1 -1 1024.2 1011.6
18 16.08 штиль 0 10 км туман местами ясно -1.3 -1.4 99 -3 -3 1025.0 1012.4
21 16.08 штиль 0 50 км ясно +5.6 +5.3 98 +4 +8 1025.4 1013.1 -1.6
00 17.08 Ю 1 50 км ясно +15.8 +4.8 48 +17 +25 1024.2 1012.3
03 17.08 В 2 50 км ясно +20.9 +3.1 31 +22 +30 комфорт 1023.2 1011.6
06 17.08 В 3 50 км ясно +21.8 +1.4 26 +21 +24 комфорт 1022.3 1010.7
09 17.08 С 2 10 км дым ясно +13.0 +7.4 69 +12 +12 1022.7 1010.7 +22.2
12 17.08 штиль 0 10 км дым ясно +3.6 +3.2 97 +2 +2 1024.0 1011.6
15 17.08 штиль 0 10 км туман местами ясно +0.5 +0.2 98 -1 -1 1025.0 1012.4
18 17.08 штиль 0 10 км туман местами ясно -1.5 -1.6 99 -3 -3 1025.5 1012.8
21 17.08 штиль 0 20 км дым ясно +6.5 +5.9 96 +5 +9 1025.5 1013.2 -1.5
00 18.08 В 1 20 км дым ясно +17.5 +5.1 44 +19 +27 1024.0 1012.2
03 18.08 В 3 20 км дым ясно +20.7 +3.4 32 +22 +28 комфорт 1022.6 1010.9
06 18.08 В 2 20 км дым ясно +21.5 +3.6 31 +22 +25 комфорт 1021.6 1010.0
09 18.08 С 2 50 км ясно +15.4 +6.7 56 +15 +15 1021.8 1009.9 +21.7
12 18.08 штиль 0 50 км местами туман поземный ясно +5.0 +4.5 97 +4 +4 1022.7 1010.4

 

Местоположение метеостанции Коркодон (Магаданская область, Россия): широта 64.75 долгота 153.90 высота над уровнем моря 99 м.

В архиве по умолчанию представлена погода в Коркодоне за последнюю неделю. Архивные данные за месяц целиком и за предыдущие месяцы, начиная с января 2011 года, Вы можете получить, выбрав интересующий диапазон дат из раскрывающегося списка и нажав кнопку "Ввод!".


*Определитесь, кто Вы:
робот инопланетянин человек

Внимание! Время в таблицах - всемирное. Для получения местного времени необходимо прибавить поправку, которая равна 11 ч.

Смотрите также архив погоды в соседних городах и на ближайших метеорологических станциях:

Погода в Балыгычане (Магаданская область, Россия) (94 км)
Погода в Зырянке (Якутия, Россия) (177 км)
Погода в Сеймчане (Магаданская область, Россия) (217 км)
Погода в Омсукчане (Магаданская область, Россия) (265 км)
Погода в Среднекане (Магаданская область, Россия) (268 км)
Погода в Совхозе Эльген (Магаданская область, Россия) (271 км)
Погода в Лабазной (Магаданская область, Россия) (276 км)
Погода в Среднеколымске (Якутия, Россия) (300 км)
Погода в Омолоне (Чукотка, Россия) (315 км)
Погода в Ягодной (Магаданская область, Россия) (327 км)

Пояснения к столбцам:

Ветер - указаны скорость ветра в м/с - средняя за 10 мин, порывы в срок и между сроками (в фигурных скобках) и направление, откуда дует ветер: С - северный, СВ - северо-восточный, В - восточный, ЮВ - юго-восточный, Ю - южный, ЮЗ - юго-западный, З - западный, СЗ - северо-западный.
Видимость - горизонтальная дальность видимости в метрах или километрах. При видимости от 1 до 10 км при отсутствии осадков обычно наблюдается дымка, при ухудшении видимости до 1 км и менее - туман. В сухую погоду видимость может ухудшаться дымом, пылью или мглою.
Явления - указаны атмосферные явления, наблюдавшиеся в срок или в последний час перед сроком; фигурными скобками обозначены явления, наблюдавшиеся между сроками (за 1-3 часа до срока); квадратными скобками обозначены град или гололедные отложения с указанием их диаметра в мм.
Облачность - указаны через наклонную черту общая и нижняя облачность в баллах и высота нижней границы облаков в метрах; квадратными скобками обозначены формы облаков: Ci - перистые, Cs - перисто-слоистые, Cc - перисто-кучевые, Ac - высококучевые, As - высокослоистые, Sc - слоисто-кучевые, Ns - слоисто-дождевые, Cu - кучевые, Cb - кучево-дождевые. Подробнее классификацию облаков см. в Атласе облаков (PDF).
T - Температура воздуха - температура, измеренная на высоте 2 м над землей.
Td - Температура точки росы - температура, при понижении до которой содержащийся в воздухе водяной пар достигнет насыщения.
f - Относительная влажность воздуха - влажноcть воздуха, измеренная на высоте 2 м над землей.
Te - Эффективная температура - температура, которую ощущает одетый по сезону человек в тени. Характеристика душности погоды. При расчете учитывается влияние влажности воздуха и скорости ветра на теплоощущения человека.
Tes - Эффективная температура на солнце - температура, которую ощущает человек, с поправкой на солнечный нагрев. Характеристика знойности погоды. Зависит от высоты солнца над горизонтом, облачности и скорости ветра. Ночью, в пасмурную погоду, а также при ветре 12 м/с и более поправка равна нулю.
P - Атмосферное давление - приведенное к уровню моря атмосферное давление.
Po - Атмосферное давление - измеренное на уровне метеостанции атмосферное давление.
Tmin - Минимальная температура - минимум температуры воздуха на высоте 2 м над землей.
Tmax - Максимальная температура - максимум температуры воздуха на высоте 2 м над землей.
R - Количество осадков - Количество выпавших осадков за период времени, мм. При наведении курсора мыши на число - период времени, за который выпало указанное количество осадков.
R24 - Количество осадков - Количество выпавших осадков за 24 часа, мм.
S - Снежный покров - Высота снежного покрова, см. При наведении курсора мыши на число - состояние снежного покрова и степень покрытия местности в баллах.